KB1DML-5 Weather Reports


time (UTC)temp
C
wind
direction
speed
KPH
gust
KPH
rain 1hr
cm
rain 24hr
cm
rain mn
cm
humidity
%
barometer
mb
20260507111017 8 315 3.2 6.4 0.03 0.18 0.18 89 1008.6
20260507110516 8 315 3.2 6.4 0.05 0.18 0.18 89 1008.5
20260507110016 8 23 3.2 6.4 0.05 0.18 0.18 89 1008.8
20260507105517 8 293 6.4 12.9 0.05 0.18 0.18 89 1008.8
20260507105016 8 293 8.0 12.9 0.05 0.18 0.18 89 1008.9
20260507104516 8 45 3.2 9.7 0.05 0.18 0.18 90 1008.6
20260507104016 8 45 3.2 6.4 0.05 0.18 0.18 90 1008.3
20260507103517 8 45 3.2 6.4 0.08 0.18 0.18 90 1008.6
20260507103016 8 315 4.8 9.7 0.10 0.18 0.18 89 1008.6
20260507102536 8 338 4.8 12.9 0.13 0.18 0.18 89 1008.6
20260507102036 8 338 4.8 8.0 0.15 0.18 0.18 89 1008.6
20260507101517 8 338 4.8 9.7 0.13 0.15 0.15 89 1008.6
20260507101016 8 293 4.8 9.7 0.13 0.15 0.15 88 1008.4
20260507100516 8 338 4.8 11.3 0.10 0.13 0.13 88 1008.4
20260507100017 8 338 6.4 14.5 0.10 0.13 0.13 88 1008.2
20260507095517 8 338 4.8 12.9 0.10 0.13 0.13 88 1008.3
20260507095016 9 315 6.4 16.1 0.10 0.13 0.13 87 1008.5
20260507094536 9 315 6.4 17.7 0.10 0.13 0.13 88 1008.4
20260507094016 9 315 6.4 16.1 0.10 0.13 0.13 87 1008.4
20260507093516 9 315 9.7 17.7 0.08 0.10 0.10 87 1008.4
20260507093016 9 293 11.3 17.7 0.08 0.08 0.08 87 1008.3
20260507092516 10 293 12.9 19.3 0.05 0.05 0.05 87 1008.4
20260507092016 10 293 16.1 20.9 0.03 0.03 0.03 86 1008.4
20260507091537 10 293 16.1 20.9 0.03 0.03 0.03 86 1008.5
20260507091016 10 293 16.1 22.5 0.03 0.03 0.03 85 1008.2
20260507090516 10 293 16.1 22.5 0.03 0.03 0.03 86 1008.2
20260507090037 10 293 17.7 22.5 0.03 0.03 0.03 86 1008.2
20260507085516 10 293 19.3 27.4 0.03 0.03 0.03 85 1008.0
20260507085015 10 293 16.1 24.1 0.03 0.03 0.03 86 1007.8
20260507084516 10 293 14.5 27.4 0.03 0.03 0.03 86 1007.8
20260507084017 10 293 17.7 25.7 0.03 0.03 0.03 87 1007.8
20260507083515 10 293 17.7 24.1 0.03 0.03 0.03 87 1007.7
20260507083016 10 293 17.7 25.7 0.00 0.00 0.00 86 1007.6
20260507082516 10 293 22.5 32.2 0.00 0.00 0.00 86 1007.8
20260507082017 10 293 24.1 32.2 0.00 0.00 0.00 86 1007.8
20260507081516 10 293 25.7 33.8 0.00 0.00 0.00 86 1007.9
20260507081016 10 293 20.9 32.2 0.00 0.00 0.00 86 1007.8
20260507080516 10 293 19.3 29.0 0.00 0.00 0.00 85 1007.8
20260507080016 10 293 22.5 29.0 0.00 0.00 0.00 84 1007.7
20260507075516 10 293 22.5 32.2 0.00 0.00 0.00 84 1007.7
20260507075036 11 293 22.5 29.0 0.00 0.00 0.00 84 1007.8
20260507074536 11 293 19.3 27.4 0.00 0.00 0.00 84 1007.4
20260507074017 11 293 19.3 25.7 0.00 0.00 0.00 84 1007.2
20260507073516 11 293 17.7 24.1 0.00 0.00 0.00 84 1007.5
20260507073016 11 293 17.7 22.5 0.00 0.00 0.00 84 1007.4
20260507072536 11 293 16.1 24.1 0.00 0.00 0.00 84 1007.4
20260507072016 11 293 16.1 24.1 0.00 0.00 0.00 83 1007.5
20260507071515 11 293 16.1 22.5 0.00 0.00 0.00 84 1007.4
20260507071015 11 270 16.1 25.7 0.00 0.00 0.00 85 1007.3
20260507070556 11 293 14.5 25.7 0.00 0.00 0.00 86 1007.3
20260507070036 11 293 14.5 19.3 0.00 0.00 0.00 87 1007.4
20260507065515 11 270 11.3 17.7 0.00 0.00 0.00 88 1007.4
20260507065016 11 293 12.9 19.3 0.00 0.00 0.00 88 1007.3
20260507064516 11 293 12.9 17.7 0.00 0.00 0.00 88 1007.1
20260507064016 11 293 12.9 17.7 0.00 0.00 0.00 88 1007.0
20260507063516 11 293 11.3 19.3 0.00 0.00 0.00 89 1006.9
20260507063015 11 293 8.0 19.3 0.00 0.00 0.00 89 1006.8
20260507062516 11 315 8.0 16.1 0.00 0.00 0.00 89 1007.1
20260507062036 11 293 11.3 17.7 0.00 0.00 0.00 89 1007.2
20260507061515 11 293 17.7 24.1 0.00 0.00 0.00 89 1007.4
20260507061015 11 293 12.9 22.5 0.00 0.00 0.00 90 1007.4
20260507060516 11 293 9.7 16.1 0.00 0.00 0.00 90 1007.2
20260507060015 11 315 6.4 16.1 0.00 0.00 0.00 90 1007.4
20260507055515 11 293 12.9 22.5 0.00 0.00 0.00 90 1007.5
20260507055016 11 293 11.3 19.3 0.00 0.00 0.00 90 1007.5
20260507054515 11 293 9.7 16.1 0.00 0.00 0.00 90 1007.5
20260507054015 11 315 8.0 19.3 0.00 0.00 0.00 90 1007.3
20260507053515 11 315 8.0 16.1 0.00 0.00 0.00 90 1007.0
20260507053016 11 338 9.7 17.7 0.00 0.00 0.00 91 1006.9
20260507052516 11 315 8.0 16.1 0.00 0.00 0.00 90 1007.2
20260507052015 12 338 8.0 17.7 0.00 0.00 0.00 90 1007.3
20260507051535 12 315 6.4 14.5 0.00 0.00 0.00 90 1007.2
20260507051016 13 315 8.0 16.1 0.00 0.00 0.00 90 1007.2
20260507050515 13 293 11.3 22.5 0.00 0.00 0.00 92 1007.2
20260507050015 13 270 12.9 22.5 0.00 0.00 0.00 93 1007.0
20260507045535 14 270 12.9 19.3 0.00 0.00 0.00 93 1006.9
20260507045016 14 270 12.9 20.9 0.00 0.00 0.00 94 1006.8
20260507044516 14 270 9.7 19.3 0.00 0.00 0.00 95 1007.0
20260507044015 14 248 4.8 9.7 0.00 0.00 0.00 94 1007.1
20260507043516 13 225 3.2 11.3 0.00 0.00 0.00 94 1007.0
20260507043016 13 225 6.4 11.3 0.00 0.00 0.00 94 1007.1
20260507042516 13 203 6.4 9.7 0.00 0.00 0.00 94 1006.9
20260507042016 13 203 9.7 14.5 0.00 0.00 0.00 94 1007.1
20260507041516 13 203 9.7 11.3 0.00 0.00 0.00 94 1007.1
20260507041016 13 203 12.9 16.1 0.00 0.00 0.00 94 1007.1
20260507040516 13 203 11.3 16.1 0.00 0.00 0.00 94 1007.1
20260507040015 13 203 9.7 14.5 0.00 0.00 0.00 94 1006.9
20260507035516 13 203 12.9 16.1 0.00 0.00 0.00 93 1007.1
20260507035037 13 203 12.9 16.1 0.00 0.00 0.00 93 1007.1
20260507034517 13 203 12.9 16.1 0.00 0.00 0.00 93 1007.2
20260507034017 13 203 16.1 19.3 0.00 0.00 0.00 93 1007.0
20260507033516 13 203 14.5 19.3 0.00 0.00 0.00 93 1006.9
20260507033036 13 203 16.1 20.9 0.00 0.00 0.00 93 1006.8
20260507032516 13 203 16.1 24.1 0.00 0.00 0.00 94 1006.7
20260507032016 13 203 16.1 19.3 0.00 0.00 0.00 94 1006.6
20260507031516 13 203 16.1 20.9 0.00 0.00 0.00 94 1006.5
20260507031016 13 203 16.1 22.5 0.00 0.00 0.00 94 1006.4
20260507030536 13 203 17.7 24.1 0.00 0.00 0.00 94 1006.5
20260507030016 13 203 16.1 20.9 0.00 0.00 0.00 93 1006.6
20260507025517 13 203 17.7 22.5 0.00 0.00 0.00 94 1006.5
20260507025036 13 203 16.1 22.5 0.00 0.00 0.00 93 1006.6
20260507024516 13 203 17.7 22.5 0.00 0.00 0.00 93 1006.7
20260507024016 13 203 19.3 25.7 0.00 0.00 0.00 93 1006.8
20260507023537 13 203 19.3 25.7 0.00 0.00 0.00 93 1006.7
20260507023016 13 203 17.7 22.5 0.00 0.00 0.00 93 1006.8
20260507022516 13 203 19.3 27.4 0.00 0.00 0.00 93 1006.7
20260507022016 13 203 19.3 27.4 0.00 0.00 0.00 93 1006.6
20260507021516 13 203 20.9 25.7 0.00 0.00 0.00 93 1006.9
20260507021016 13 203 20.9 25.7 0.00 0.00 0.00 93 1006.8
20260507020517 13 203 20.9 29.0 0.00 0.00 0.00 93 1006.9
20260507020016 13 203 20.9 32.2 0.00 0.00 0.00 93 1006.9
20260507015516 13 203 20.9 27.4 0.00 0.00 0.00 93 1007.0
20260507015016 13 203 22.5 27.4 0.00 0.00 0.00 93 1007.0
20260507014537 13 203 22.5 30.6 0.00 0.00 0.00 93 1007.0
20260507014016 13 203 22.5 29.0 0.00 0.00 0.00 93 1007.0
20260507013516 13 203 22.5 35.4 0.00 0.00 0.00 93 1007.2
20260507013037 13 203 20.9 29.0 0.00 0.00 0.00 93 1007.2
20260507012516 13 203 24.1 30.6 0.00 0.00 0.00 93 1007.1
20260507012016 13 203 24.1 30.6 0.00 0.00 0.00 93 1007.3
20260507011516 13 203 25.7 32.2 0.00 0.00 0.00 93 1007.2
20260507011037 13 203 27.4 37.0 0.00 0.00 0.00 92 1007.3
20260507010516 13 203 27.4 37.0 0.00 0.00 0.00 92 1007.2
20260507010016 13 203 27.4 35.4 0.00 0.00 0.00 92 1007.2
20260507005517 13 203 27.4 35.4 0.00 0.00 0.00 92 1007.3
20260507005016 13 203 25.7 33.8 0.00 0.00 0.00 92 1007.3
20260507004556 13 203 25.7 35.4 0.00 0.00 0.00 92 1007.2
20260507004016 13 203 27.4 40.2 0.00 0.00 0.00 92 1007.2
20260507003536 13 203 29.0 40.2 0.00 0.00 0.00 92 1007.1
20260507003016 13 203 29.0 43.5 0.00 0.00 0.00 92 1007.1
20260507002516 13 203 25.7 35.4 0.00 0.00 0.00 92 1007.1
20260507002017 13 203 29.0 35.4 0.00 0.00 0.00 92 1007.1
20260507001516 13 203 27.4 35.4 0.00 0.00 0.00 92 1007.2
20260507001015 13 203 29.0 38.6 0.00 0.00 0.00 92 1007.1
20260507000516 13 203 27.4 37.0 0.00 0.00 0.00 92 1007.1
20260507000016 13 203 25.7 38.6 0.00 0.00 0.00 92 1007.2
20260506235516 13 203 29.0 46.7 0.00 0.00 0.00 92 1007.2
20260506235016 13 203 27.4 35.4 0.00 0.00 0.00 92 1007.0
20260506234516 13 203 24.1 33.8 0.00 0.00 0.00 92 1006.9
20260506234037 13 203 25.7 32.2 0.00 0.00 0.00 92 1007.1
20260506233516 13 203 29.0 38.6 0.00 0.00 0.00 92 1007.1
20260506233016 13 203 30.6 35.4 0.00 0.00 0.00 92 1007.2
20260506232516 14 203 29.0 38.6 0.00 0.00 0.00 92 1007.3
20260506232016 14 203 30.6 41.8 0.00 0.00 0.00 92 1007.1
20260506231515 14 203 33.8 43.5 0.00 0.00 0.00 92 1007.3
20260506231016 14 203 32.2 40.2 0.00 0.00 0.00 92 1007.2
20260506230537 13 203 30.6 40.2 0.00 0.00 0.00 92 1007.3
20260506230016 13 203 27.4 35.4 0.00 0.00 0.00 92 1007.3
20260506225516 13 203 29.0 37.0 0.00 0.00 0.00 91 1007.2
20260506225016 14 203 27.4 37.0 0.00 0.00 0.00 91 1007.2
20260506224516 14 180 27.4 38.6 0.00 0.00 0.00 91 1007.1
20260506224016 14 203 27.4 37.0 0.00 0.00 0.00 91 1007.4
20260506223516 14 203 29.0 38.6 0.00 0.00 0.00 91 1007.4
20260506223015 14 203 30.6 40.2 0.00 0.00 0.00 91 1007.6
20260506222516 15 203 32.2 45.1 0.00 0.00 0.00 91 1007.5
20260506222015 15 203 29.0 45.1 0.00 0.00 0.00 90 1007.6
20260506221515 15 203 29.0 38.6 0.00 0.00 0.00 90 1007.7
20260506221035 15 203 32.2 45.1 0.00 0.00 0.00 90 1007.8
20260506220516 15 203 30.6 40.2 0.00 0.00 0.00 89 1007.8
20260506220015 15 203 30.6 43.5 0.00 0.00 0.00 89 1007.8
20260506215515 15 203 32.2 41.8 0.00 0.00 0.00 89 1007.9
20260506215015 15 203 32.2 45.1 0.00 0.00 0.00 89 1007.8
20260506214536 15 203 29.0 40.2 0.00 0.00 0.00 89 1008.0
20260506214016 15 203 32.2 41.8 0.00 0.00 0.00 89 1007.9
20260506213515 15 203 32.2 41.8 0.00 0.00 0.00 89 1007.9
20260506213016 15 203 32.2 40.2 0.00 0.00 0.00 88 1008.0
20260506212516 15 203 33.8 43.5 0.00 0.00 0.00 88 1008.0
20260506212015 15 203 32.2 40.2 0.00 0.00 0.00 87 1008.1
20260506211515 15 203 29.0 37.0 0.00 0.00 0.00 86 1008.2
20260506211015 15 203 30.6 41.8 0.00 0.00 0.00 86 1008.2
20260506210516 15 203 30.6 41.8 0.00 0.00 0.00 85 1008.3
20260506210015 16 203 32.2 41.8 0.00 0.00 0.00 84 1008.1
20260506205515 16 203 32.2 38.6 0.00 0.00 0.00 83 1008.2
20260506205015 16 203 32.2 45.1 0.00 0.00 0.00 83 1008.4
20260506204536 16 203 30.6 46.7 0.00 0.00 0.00 83 1008.4
20260506204015 16 203 29.0 40.2 0.00 0.00 0.00 83 1008.4
20260506203515 16 203 29.0 40.2 0.00 0.00 0.00 83 1008.4
20260506203015 16 203 29.0 41.8 0.00 0.00 0.00 83 1008.3
20260506202516 16 203 29.0 35.4 0.00 0.00 0.00 83 1007.9
20260506202015 16 203 27.4 37.0 0.00 0.00 0.00 83 1007.9
20260506201516 16 203 30.6 40.2 0.00 0.00 0.00 82 1008.0
20260506201015 16 203 32.2 45.1 0.00 0.00 0.00 82 1008.0
20260506200515 16 203 32.2 43.5 0.00 0.00 0.00 81 1008.2
20260506200015 16 203 32.2 43.5 0.00 0.00 0.00 81 1008.3
20260506195515 16 203 32.2 45.1 0.00 0.00 0.00 81 1008.4
20260506195015 16 203 33.8 43.5 0.00 0.00 0.00 80 1008.6
20260506194515 16 203 30.6 38.6 0.00 0.00 0.00 79 1008.6
20260506194035 16 203 33.8 43.5 0.00 0.00 0.00 78 1008.7
20260506193515 16 203 32.2 43.5 0.00 0.00 0.00 78 1008.6
20260506193036 17 203 30.6 38.6 0.00 0.00 0.00 77 1008.5
20260506192515 17 203 32.2 43.5 0.00 0.00 0.00 77 1008.5
20260506192015 17 203 30.6 41.8 0.00 0.00 0.00 76 1008.5
20260506191536 17 203 32.2 43.5 0.00 0.00 0.00 76 1008.5
20260506191015 17 203 35.4 46.7 0.00 0.00 0.00 76 1008.4
20260506190515 17 203 33.8 45.1 0.00 0.00 0.00 76 1008.5
20260506190015 17 203 33.8 43.5 0.00 0.00 0.00 76 1008.5
20260506185515 17 203 32.2 40.2 0.00 0.00 0.00 76 1008.5
20260506185015 17 203 33.8 46.7 0.00 0.00 0.00 76 1008.4
20260506184515 17 203 30.6 40.2 0.00 0.00 0.00 76 1008.5
20260506184036 17 203 30.6 40.2 0.00 0.00 0.00 75 1008.5
20260506183515 17 203 29.0 40.2 0.00 0.00 0.00 75 1008.4
20260506183015 17 203 30.6 48.3 0.00 0.00 0.00 74 1008.4
20260506182515 17 203 29.0 40.2 0.00 0.00 0.00 74 1008.6
20260506182016 17 203 35.4 48.3 0.00 0.00 0.00 74 1008.7
20260506181515 17 203 33.8 49.9 0.00 0.00 0.00 74 1008.8
20260506181015 18 203 33.8 45.1 0.00 0.00 0.00 73 1008.7
20260506180515 18 203 30.6 40.2 0.00 0.00 0.00 73 1009.1
20260506180016 18 203 35.4 45.1 0.00 0.00 0.00 72 1009.1
20260506175535 18 203 33.8 46.7 0.00 0.00 0.00 72 1009.1
20260506175015 18 203 37.0 45.1 0.00 0.00 0.00 72 1008.9
20260506174536 18 203 37.0 46.7 0.00 0.00 0.00 71 1009.0
20260506174015 19 203 37.0 46.7 0.00 0.00 0.00 71 1009.1
20260506173537 18 203 33.8 41.8 0.00 0.00 0.00 72 1009.1
20260506173017 18 203 32.2 46.7 0.00 0.00 0.00 73 1009.1
20260506172517 18 203 33.8 48.3 0.00 0.00 0.00 74 1009.1
20260506172017 17 180 27.4 37.0 0.00 0.00 0.00 74 1009.1
20260506171517 17 180 27.4 38.6 0.00 0.00 0.00 74 1009.2
20260506171058 17 180 27.4 33.8 0.00 0.00 0.00 74 1009.2
20260506170517 17 180 25.7 33.8 0.00 0.00 0.00 74 1009.3
20260506170017 17 180 29.0 37.0 0.00 0.00 0.00 74 1009.3
20260506165517 18 180 29.0 38.6 0.00 0.00 0.00 73 1009.3
20260506165018 18 180 27.4 37.0 0.00 0.00 0.00 73 1009.3
20260506164517 18 180 29.0 45.1 0.00 0.00 0.00 73 1009.3
20260506164017 18 180 30.6 40.2 0.00 0.00 0.00 74 1009.4
20260506163517 17 180 29.0 43.5 0.00 0.00 0.00 74 1009.6
20260506163017 17 180 25.7 33.8 0.00 0.00 0.00 74 1009.5
20260506162517 17 180 29.0 38.6 0.00 0.00 0.00 74 1009.7
20260506162017 18 180 29.0 40.2 0.00 0.00 0.00 73 1009.8
20260506161537 18 180 25.7 37.0 0.00 0.00 0.00 73 1009.8
20260506161018 18 180 27.4 35.4 0.00 0.00 0.00 72 1010.1
20260506160517 18 180 29.0 41.8 0.00 0.00 0.00 71 1010.2
20260506160017 18 180 25.7 35.4 0.00 0.00 0.00 71 1010.2
20260506155517 19 180 29.0 38.6 0.00 0.00 0.00 70 1010.3
20260506155017 19 180 30.6 40.2 0.00 0.00 0.00 69 1010.4
20260506154516 20 180 29.0 35.4 0.00 0.00 0.00 69 1010.4
20260506154017 20 203 30.6 51.5 0.00 0.00 0.00 70 1010.6
20260506153517 20 203 33.8 43.5 0.00 0.00 0.00 70 1010.5
20260506153038 20 203 35.4 43.5 0.00 0.00 0.00 70 1010.6
20260506152517 20 203 32.2 46.7 0.00 0.00 0.00 71 1010.6
20260506152016 19 203 32.2 40.2 0.00 0.00 0.00 72 1010.7
20260506151517 19 203 33.8 41.8 0.00 0.00 0.00 72 1010.8
20260506151016 19 203 35.4 46.7 0.00 0.00 0.00 72 1010.8
20260506150537 19 203 33.8 48.3 0.00 0.00 0.00 72 1010.7
20260506150017 19 203 32.2 41.8 0.00 0.00 0.00 73 1010.6
20260506145518 18 203 33.8 48.3 0.00 0.00 0.00 73 1010.5
20260506145016 18 203 30.6 53.1 0.00 0.00 0.00 73 1010.6
20260506144516 18 180 27.4 38.6 0.00 0.00 0.00 73 1010.5
20260506144017 18 203 27.4 41.8 0.00 0.00 0.00 74 1010.5
20260506143517 18 203 32.2 45.1 0.00 0.00 0.00 74 1010.3
20260506143017 18 203 29.0 45.1 0.00 0.00 0.00 74 1010.4
20260506142517 18 203 30.6 40.2 0.00 0.00 0.00 75 1010.4
20260506142016 18 180 29.0 37.0 0.00 0.00 0.00 76 1010.5
20260506141517 17 203 29.0 41.8 0.00 0.00 0.00 78 1010.5
20260506141016 17 203 32.2 43.5 0.00 0.00 0.00 78 1010.6
20260506140516 17 203 33.8 49.9 0.00 0.00 0.00 78 1010.7
20260506140017 17 203 30.6 49.9 0.00 0.00 0.00 79 1010.7
20260506135517 17 203 29.0 40.2 0.00 0.00 0.00 79 1010.9
20260506135016 17 203 32.2 49.9 0.00 0.00 0.00 79 1011.0
20260506134516 17 203 32.2 45.1 0.00 0.00 0.00 79 1011.1
20260506134037 17 203 33.8 48.3 0.00 0.00 0.00 79 1011.1
20260506133517 17 203 30.6 41.8 0.00 0.00 0.00 80 1011.1
20260506133037 17 203 32.2 43.5 0.00 0.00 0.00 80 1010.9
20260506132517 17 203 35.4 45.1 0.00 0.00 0.00 80 1011.0
20260506132017 17 203 33.8 48.3 0.00 0.00 0.00 80 1010.9
20260506131537 16 203 33.8 45.1 0.00 0.00 0.00 80 1010.9
20260506131016 16 203 30.6 40.2 0.00 0.00 0.00 81 1011.0
20260506130516 16 203 29.0 37.0 0.00 0.00 0.00 82 1011.1
20260506130037 16 203 29.0 40.2 0.00 0.00 0.00 84 1011.1
20260506125516 15 203 29.0 40.2 0.00 0.00 0.00 85 1011.2
20260506125016 15 203 29.0 38.6 0.00 0.00 0.00 84 1011.2
20260506124537 15 203 30.6 41.8 0.00 0.00 0.00 84 1011.2
20260506124017 15 203 30.6 40.2 0.00 0.00 0.00 85 1011.2
20260506123516 15 203 29.0 35.4 0.00 0.00 0.00 84 1011.0
20260506123017 15 203 30.6 38.6 0.00 0.00 0.00 85 1010.9
20260506122516 15 203 29.0 41.8 0.00 0.00 0.00 85 1010.9
20260506122016 15 203 32.2 43.5 0.00 0.00 0.00 85 1011.0
20260506121516 15 203 29.0 38.6 0.00 0.00 0.00 86 1011.1
20260506121017 15 203 29.0 40.2 0.00 0.00 0.00 86 1011.1
20260506120517 15 203 29.0 41.8 0.00 0.00 0.00 86 1011.1
20260506120037 15 203 27.4 37.0 0.00 0.00 0.00 86 1011.4
20260506115516 15 203 32.2 43.5 0.00 0.00 0.00 86 1011.6
20260506115016 14 203 33.8 40.2 0.00 0.00 0.00 87 1011.5
20260506114516 14 203 32.2 38.6 0.00 0.00 0.00 87 1011.5
20260506114036 14 203 30.6 43.5 0.00 0.00 0.00 87 1011.4
20260506113516 14 203 32.2 40.2 0.00 0.00 0.00 87 1011.3
20260506113037 14 203 29.0 40.2 0.00 0.00 0.00 87 1011.3
20260506112557 14 203 27.4 38.6 0.00 0.00 0.00 87 1011.4
20260506112016 14 203 29.0 43.5 0.00 0.00 0.00 87 1011.4
20260506111517 13 203 29.0 38.6 0.00 0.00 0.00 87 1011.5